Orlando, FL

9:41 PM EDT on October 17, 2017 (GMT -0400)
Executive

Weather History for KORL - June, 2017

Change the Weather History Date:

Monday, June 19, 2017

  Actual Average Record
Temperature  
Mean Temperature 80 °F -  
Max Temperature 89 °F 88 °F 100 °F (1998)
Min Temperature 73 °F 71 °F 70 °F (2012)
Cooling Degree Days 16    
Growing Degree Days 30 (Base 50)    
Moisture  
Dew Point 74 °F    
Average Humidity 87    
Maximum Humidity 100    
Minimum Humidity 63    
Precipitation  
Precipitation 0.46 in - - ()
Sea Level Pressure  
Sea Level Pressure 30.02 in    
Wind  
Wind Speed 8 mph (SE)    
Max Wind Speed 18 mph    
Max Gust Speed 37 mph    
Visibility 9 miles    
Events Rain , Thunderstorm    
Averages and records for this station are not official NWS values.
T = Trace of Precipitation, MM = Missing Value Source: NWS Daily Summary

Daily Weather History Graph

Daily Weather History Graph

Search for Another Location

Airport or City:

Trip Planner

Search our weather history database for the weather conditions in past years. The results will help you decide how hot, cold, wet, or windy it might be!

Date:

Astronomy

Jun. 19, 2017 Rise Set
Actual Time 6:27 AM EDT 8:25 PM EDT
Civil Twilight 6:00 AM EDT 8:52 PM EDT
Nautical Twilight 5:28 AM EDT 9:25 PM EDT
Astronomical Twilight 4:53 AM EDT 9:59 PM EDT
Moon 2:49 AM EDT (6/19) 3:39 PM EDT (6/19)
Length of Visible Light 14h 51m
Length of Day
13h 57m
Waning Crescent, 27% of the Moon is Illuminated
Jun 19
Waning Crescent
Jun 23
New
Jun 30
First Quarter
Jul 9
Full
Jul 16
Last Quarter

Hourly Weather History & Observations

Time (EDT) Temp. Heat Index Dew Point Humidity Pressure Visibility Wind Dir Wind Speed Gust Speed Precip Events Conditions
1:53 AM 75.9 °F - 72.0 °F 87% 30.03 in 10.0 mi NE 4.6 mph - N/A   Clear
2:53 AM 75.0 °F - 73.0 °F 94% 30.01 in 10.0 mi East 3.5 mph - N/A   Scattered Clouds
3:53 AM 75.0 °F - 73.0 °F 94% 29.99 in 10.0 mi ENE 4.6 mph - N/A   Clear
4:53 AM 73.9 °F - 73.0 °F 97% 29.98 in 10.0 mi ESE 4.6 mph - N/A   Clear
5:53 AM 73.9 °F - 73.9 °F 100% 29.98 in 10.0 mi East 6.9 mph - N/A   Clear
6:53 AM 75.0 °F - 73.9 °F 96% 30.00 in 10.0 mi East 5.8 mph - N/A   Partly Cloudy
7:53 AM 78.1 °F - 75.9 °F 93% 30.01 in 10.0 mi East 6.9 mph - N/A   Clear
8:53 AM 81.0 °F 87.3 °F 75.9 °F 85% 30.03 in 10.0 mi SE 8.1 mph - N/A   Clear
9:53 AM 84.0 °F 92.6 °F 75.9 °F 76% 30.03 in 10.0 mi ESE 16.1 mph - N/A   Partly Cloudy
10:22 AM 84.0 °F 92.6 °F 75.9 °F 76% 30.02 in 10.0 mi SE 13.8 mph - N/A   Mostly Cloudy
10:33 AM 84.9 °F 94.1 °F 75.9 °F 74% 30.02 in 10.0 mi ESE 13.8 mph - N/A   Scattered Clouds
10:53 AM 84.9 °F 93.3 °F 75.0 °F 72% 30.03 in 10.0 mi ESE 15.0 mph - N/A   Mostly Cloudy
11:53 AM 87.1 °F 95.4 °F 73.9 °F 65% 30.02 in 10.0 mi SE 13.8 mph 20.7 mph N/A   Mostly Cloudy
12:10 PM 88.0 °F 96.5 °F 73.9 °F 63% 30.01 in 10.0 mi SSE 16.1 mph - N/A Thunderstorm Thunderstorm
12:31 PM 88.0 °F 96.5 °F 73.9 °F 63% 30.00 in 10.0 mi Variable 6.9 mph - N/A Thunderstorm Mostly Cloudy
12:53 PM 86.0 °F 96.0 °F 75.9 °F 72% 30.00 in 10.0 mi East 13.8 mph - N/A Thunderstorm Thunderstorm
1:02 PM 87.1 °F 97.3 °F 75.9 °F 69% 29.99 in 10.0 mi East 11.5 mph - N/A   Scattered Clouds
1:18 PM 75.9 °F - 73.0 °F 91% 30.01 in 1.0 mi South 17.3 mph 36.8 mph 0.35 in Rain , Thunderstorm Heavy Thunderstorms and Rain
1:28 PM 78.1 °F - 73.9 °F 87% 30.01 in 6.0 mi ESE 8.1 mph - 0.40 in Rain , Thunderstorm Light Thunderstorms and Rain
1:43 PM 78.1 °F - 77.0 °F 96% 30.01 in 6.0 mi South 18.4 mph 25.3 mph 0.42 in Rain , Thunderstorm Light Rain
1:49 PM 78.8 °F - 75.2 °F 89% 30.01 in 7.0 mi South 13.8 mph 25.3 mph 0.42 in Rain , Thunderstorm Light Thunderstorms and Rain
1:53 PM 78.1 °F - 75.9 °F 93% 30.03 in 10.0 mi South 13.8 mph - 0.42 in Rain , Thunderstorm Light Thunderstorms and Rain
2:04 PM 77.0 °F - 75.9 °F 96% 30.02 in 6.0 mi South 13.8 mph - 0.01 in Rain Light Rain
2:53 PM 77.0 °F - 75.0 °F 94% 30.01 in 10.0 mi South 5.8 mph - 0.03 in Rain Light Rain
3:53 PM 79.0 °F - 75.9 °F 90% 30.03 in 10.0 mi SSE 5.8 mph - 0.01 in Rain Light Rain
4:08 PM 80.1 °F 85.8 °F 77.0 °F 90% 30.02 in 10.0 mi South 11.5 mph - 0.00 in   Mostly Cloudy
4:37 PM 77.0 °F - 73.9 °F 90% 30.02 in 10.0 mi SSW 10.4 mph - 0.00 in Rain Light Rain
4:53 PM 77.0 °F - 72.0 °F 84% 30.02 in 10.0 mi SSW 9.2 mph - 0.00 in   Overcast
5:53 PM 77.0 °F - 73.9 °F 90% 30.04 in 10.0 mi South 8.1 mph - 0.00 in   Overcast
6:53 PM 75.9 °F - 73.0 °F 91% 30.03 in 10.0 mi SSE 6.9 mph - N/A   Mostly Cloudy
7:53 PM 75.9 °F - 73.0 °F 91% 30.03 in 10.0 mi SSE 5.8 mph - N/A   Partly Cloudy
8:50 PM 75.2 °F - 73.4 °F 94% 30.04 in 10.0 mi SE 3.5 mph - N/A   Partly Cloudy
8:53 PM 75.9 °F - 73.9 °F 94% 30.05 in 10.0 mi SE 3.5 mph - N/A   Partly Cloudy
9:53 PM 75.9 °F - 73.9 °F 94% 30.06 in 10.0 mi ENE 5.8 mph - N/A   Partly Cloudy
10:53 PM 75.9 °F - 73.9 °F 94% 30.07 in 10.0 mi NE 4.6 mph - N/A   Clear
11:53 PM 75.0 °F - 73.9 °F 96% 30.07 in 10.0 mi ENE 5.8 mph - N/A   Clear